EW1036 Weather Reports


time (UTC)temp
C
wind
direction
speed
KPH
gust
KPH
rain 1hr
cm
rain 24hr
cm
rain mn
cm
humidity
%
barometer
mb
20260506143532 24 0 0.0 6.4 0.00 0.00 0.00 72 1016.6
20260506143053 23 115 1.6 6.4 0.00 0.00 0.00 72 1016.6
20260506142531 23 140 0.0 8.0 0.00 0.00 0.00 74 1016.6
20260506142031 23 0 0.0 8.0 0.00 0.00 0.00 74 1016.5
20260506141542 23 126 1.6 8.0 0.00 0.00 0.00 74 1016.4
20260506141035 23 144 3.2 8.0 0.00 0.00 0.00 74 1016.4
20260506140532 22 139 0.0 6.4 0.00 0.00 0.00 76 1016.5
20260506140057 22 153 1.6 8.0 0.00 0.00 0.00 76 1016.4
20260506135531 22 0 0.0 8.0 0.00 0.00 0.00 78 1016.4
20260506135034 22 155 0.0 3.2 0.00 0.00 0.00 80 1016.4
20260506134545 21 0 0.0 11.3 0.00 0.00 0.00 81 1016.4
20260506134037 21 159 1.6 11.3 0.00 0.00 0.00 82 1016.3
20260506133535 21 0 0.0 0.0 0.00 0.00 0.00 84 1016.2
20260506133101 21 0 0.0 0.0 0.00 0.00 0.00 86 1016.3
20260506132534 20 0 0.0 0.0 0.00 0.00 0.00 87 1016.3
20260506132034 20 0 0.0 0.0 0.00 0.00 0.00 90 1016.4
20260506131546 20 0 0.0 0.0 0.00 0.00 0.00 91 1016.5
20260506131032 20 0 0.0 0.0 0.00 0.00 0.00 92 1016.3
20260506130535 20 0 0.0 0.0 0.00 0.00 0.00 93 1016.3
20260506130112 19 0 0.0 0.0 0.00 0.00 0.00 93 1016.3
20260506125531 19 0 0.0 0.0 0.00 0.00 0.00 94 1016.2
20260506125034 19 0 0.0 0.0 0.00 0.00 0.00 94 1016.1
20260506124548 19 0 0.0 0.0 0.00 0.00 0.00 95 1016.1
20260506124036 18 0 0.0 0.0 0.00 0.00 0.00 95 1016.1
20260506123534 18 0 0.0 0.0 0.00 0.00 0.00 95 1016.1
20260506123049 18 0 0.0 0.0 0.00 0.00 0.00 95 1016.1
20260506122534 18 0 0.0 0.0 0.00 0.00 0.00 95 1016.1
20260506122035 18 0 0.0 0.0 0.00 0.00 0.00 95 1016.0
20260506121553 18 0 0.0 0.0 0.00 0.00 0.00 95 1016.1
20260506121034 18 0 0.0 0.0 0.00 0.00 0.00 95 1016.0
20260506120533 17 0 0.0 0.0 0.00 0.00 0.00 95 1016.0
20260506120057 17 0 0.0 0.0 0.00 0.00 0.00 95 1016.1
20260506115533 17 0 0.0 0.0 0.00 0.00 0.00 95 1016.4
20260506115036 17 0 0.0 0.0 0.00 0.00 0.00 95 1016.5
20260506114552 17 0 0.0 0.0 0.00 0.00 0.00 95 1016.4
20260506114032 17 0 0.0 0.0 0.00 0.00 0.00 95 1016.5
20260506113534 16 0 0.0 0.0 0.00 0.00 0.00 94 1016.5
20260506113050 16 0 0.0 0.0 0.00 0.00 0.00 94 1016.5
20260506112533 16 0 0.0 0.0 0.00 0.00 0.00 94 1016.5
20260506112033 16 0 0.0 0.0 0.00 0.00 0.00 94 1016.5
20260506111541 16 0 0.0 0.0 0.00 0.00 0.00 94 1016.4
20260506111033 16 0 0.0 0.0 0.00 0.00 0.00 94 1016.4
20260506110534 16 0 0.0 0.0 0.00 0.00 0.00 94 1016.4
20260506110047 16 0 0.0 0.0 0.00 0.00 0.00 94 1016.2
20260506105534 16 0 0.0 0.0 0.00 0.00 0.00 94 1016.2
20260506105034 16 0 0.0 0.0 0.00 0.00 0.00 94 1016.2
20260506104553 16 0 0.0 0.0 0.00 0.00 0.00 94 1016.2
20260506104032 16 0 0.0 0.0 0.00 0.00 0.00 93 1016.1
20260506103533 16 0 0.0 0.0 0.00 0.00 0.00 93 1016.1
20260506103043 15 0 0.0 0.0 0.00 0.00 0.00 93 1016.1
20260506102533 15 0 0.0 0.0 0.00 0.00 0.00 93 1016.0
20260506102034 15 0 0.0 0.0 0.00 0.00 0.00 93 1016.1
20260506101542 15 0 0.0 0.0 0.00 0.00 0.00 93 1016.2
20260506101032 15 0 0.0 0.0 0.00 0.00 0.00 93 1016.0
20260506100533 15 0 0.0 0.0 0.00 0.00 0.00 93 1016.0
20260506100050 15 0 0.0 0.0 0.00 0.00 0.00 92 1016.0
20260506095534 15 0 0.0 0.0 0.00 0.00 0.00 92 1016.0
20260506095032 15 0 0.0 0.0 0.00 0.00 0.00 92 1016.1
20260506094536 15 0 0.0 0.0 0.00 0.00 0.00 92 1016.2
20260506094031 15 0 0.0 0.0 0.00 0.00 0.00 92 1016.2
20260506093535 15 0 0.0 0.0 0.00 0.00 0.00 93 1016.1
20260506093045 15 0 0.0 0.0 0.00 0.00 0.00 92 1015.9
20260506092532 15 0 0.0 0.0 0.00 0.00 0.00 91 1015.9
20260506092034 15 0 0.0 0.0 0.00 0.00 0.00 91 1016.0
20260506091542 15 0 0.0 0.0 0.00 0.00 0.00 91 1015.9
20260506091034 15 0 0.0 0.0 0.00 0.00 0.00 91 1016.0
20260506090534 15 0 0.0 0.0 0.00 0.00 0.00 91 1015.9
20260506090042 15 0 0.0 0.0 0.00 0.00 0.00 91 1015.9
20260506085532 15 0 0.0 0.0 0.00 0.00 0.00 91 1016.0
20260506085033 15 0 0.0 0.0 0.00 0.00 0.00 91 1016.0
20260506084540 15 0 0.0 0.0 0.00 0.00 0.00 90 1016.1
20260506084032 15 0 0.0 0.0 0.00 0.00 0.00 90 1016.2
20260506083532 15 0 0.0 0.0 0.00 0.00 0.00 90 1016.2
20260506083053 16 0 0.0 0.0 0.00 0.00 0.00 90 1016.1
20260506082532 16 0 0.0 0.0 0.00 0.00 0.00 90 1016.1
20260506082032 16 0 0.0 0.0 0.00 0.00 0.00 90 1016.0
20260506081601 16 0 0.0 0.0 0.00 0.00 0.00 90 1016.1
20260506081032 16 0 0.0 0.0 0.00 0.00 0.00 90 1016.1
20260506080532 16 0 0.0 0.0 0.00 0.00 0.00 90 1016.1
20260506073042 16 0 0.0 0.0 0.00 0.00 0.00 90 1016.1
20260506072533 16 0 0.0 0.0 0.00 0.00 0.00 90 1016.1
20260506072036 16 0 0.0 0.0 0.00 0.00 0.00 90 1016.3
20260506071548 16 0 0.0 0.0 0.00 0.00 0.00 90 1016.3
20260506071033 17 0 0.0 0.0 0.00 0.00 0.00 90 1016.3
20260506070533 17 0 0.0 0.0 0.00 0.00 0.00 89 1016.3
20260506062032 17 0 0.0 0.0 0.00 0.00 0.00 88 1016.4
20260506061547 17 0 0.0 0.0 0.00 0.00 0.00 88 1016.2
20260506061032 17 0 0.0 0.0 0.00 0.00 0.00 87 1016.4
20260506060536 17 0 0.0 0.0 0.00 0.00 0.00 87 1016.5
20260506051032 18 0 0.0 0.0 0.00 0.00 0.00 85 1017.2
20260506050532 18 0 0.0 0.0 0.00 0.00 0.00 85 1017.3
20260506045031 18 0 0.0 0.0 0.00 0.00 0.00 85 1017.4
20260506044551 18 0 0.0 0.0 0.00 0.00 0.00 85 1017.4
20260506044036 18 0 0.0 0.0 0.00 0.00 0.00 85 1017.4
20260506043532 18 0 0.0 0.0 0.00 0.00 0.00 85 1017.4
20260506043043 18 0 0.0 0.0 0.00 0.00 0.00 85 1017.5
20260506042533 18 0 0.0 0.0 0.00 0.00 0.00 85 1017.5
20260506042032 18 0 0.0 0.0 0.00 0.00 0.00 85 1017.4
20260506041543 18 0 0.0 0.0 0.00 0.00 0.00 84 1017.6
20260506041032 18 0 0.0 0.0 0.00 0.00 0.00 84 1017.6
20260506040533 18 0 0.0 0.0 0.00 0.00 0.00 83 1017.6
20260506040044 18 0 0.0 0.0 0.00 0.00 0.00 83 1017.6
20260506035532 18 0 0.0 0.0 0.00 0.00 0.00 82 1017.5
20260506035032 18 0 0.0 0.0 0.00 0.00 0.00 82 1017.6
20260506034601 18 0 0.0 0.0 0.00 0.00 0.00 81 1017.6
20260506034033 18 0 0.0 0.0 0.00 0.00 0.00 81 1017.7
20260506033533 18 0 0.0 0.0 0.00 0.00 0.00 81 1017.7
20260506033047 18 0 0.0 0.0 0.00 0.00 0.00 80 1017.7
20260506032532 18 0 0.0 0.0 0.00 0.00 0.00 80 1017.7
20260506032029 19 0 0.0 0.0 0.00 0.00 0.00 80 1017.6
20260506031550 19 0 0.0 0.0 0.00 0.00 0.00 80 1017.7
20260506031032 19 0 0.0 0.0 0.00 0.00 0.00 80 1017.8
20260506030533 19 0 0.0 0.0 0.00 0.00 0.00 80 1017.9
20260506030044 19 0 0.0 0.0 0.00 0.00 0.00 80 1017.9
20260506025533 19 0 0.0 0.0 0.00 0.00 0.00 80 1017.9
20260506025033 19 0 0.0 0.0 0.00 0.00 0.00 80 1017.9
20260506024551 19 0 0.0 0.0 0.00 0.00 0.00 80 1017.9
20260506024032 19 0 0.0 0.0 0.00 0.00 0.00 80 1017.8
20260506023532 19 0 0.0 0.0 0.00 0.00 0.00 80 1017.9
20260506023054 19 0 0.0 0.0 0.00 0.00 0.00 80 1017.9
20260506022532 19 0 0.0 0.0 0.00 0.00 0.00 79 1017.9
20260506022032 19 0 0.0 0.0 0.00 0.00 0.00 79 1018.0
20260506021538 19 0 0.0 0.0 0.00 0.00 0.00 79 1018.0
20260506021032 19 0 0.0 0.0 0.00 0.00 0.00 79 1018.0
20260506020531 19 0 0.0 0.0 0.00 0.00 0.00 78 1017.9
20260506020044 19 0 0.0 0.0 0.00 0.00 0.00 78 1017.8
20260506015532 19 0 0.0 0.0 0.00 0.00 0.00 78 1017.8
20260506015033 19 0 0.0 0.0 0.00 0.00 0.00 78 1017.7
20260506014542 19 0 0.0 0.0 0.00 0.00 0.00 77 1017.5
20260506014032 20 0 0.0 0.0 0.00 0.00 0.00 77 1017.6
20260506013532 20 0 0.0 0.0 0.00 0.00 0.00 76 1017.6
20260506013046 20 0 0.0 1.6 0.00 0.00 0.00 76 1017.7
20260506012532 20 0 0.0 1.6 0.00 0.00 0.00 76 1017.6
20260506012032 20 0 0.0 1.6 0.00 0.00 0.00 75 1017.4
20260506011543 20 0 0.0 0.0 0.00 0.00 0.00 74 1017.4
20260506011032 20 0 0.0 0.0 0.00 0.00 0.00 73 1017.5
20260506010532 20 0 0.0 0.0 0.00 0.00 0.00 73 1017.5
20260506010055 20 0 0.0 0.0 0.00 0.00 0.00 73 1017.4
20260506005531 20 0 0.0 0.0 0.00 0.00 0.00 72 1017.3
20260506005034 20 0 0.0 0.0 0.00 0.00 0.00 72 1017.4
20260506004551 20 0 0.0 0.0 0.00 0.00 0.00 72 1017.3
20260506004032 20 0 0.0 0.0 0.00 0.00 0.00 71 1017.4
20260506003532 20 0 0.0 0.0 0.00 0.00 0.00 71 1017.4
20260506003045 20 0 0.0 0.0 0.00 0.00 0.00 70 1017.3
20260506002533 20 0 0.0 1.6 0.00 0.00 0.00 70 1017.3
20260506002032 21 0 0.0 3.2 0.00 0.00 0.00 69 1017.4
20260506001550 21 0 0.0 3.2 0.00 0.00 0.00 69 1017.3
20260506001032 21 0 0.0 3.2 0.00 0.00 0.00 69 1017.3
20260506000533 21 0 0.0 3.2 0.00 0.00 0.00 69 1017.3
20260506000043 21 0 0.0 4.8 0.00 0.00 0.00 68 1017.3
20260505235532 21 0 0.0 4.8 0.00 0.00 0.00 68 1017.2
20260505235035 21 0 0.0 4.8 0.00 0.00 0.00 67 1017.3
20260505234548 21 142 0.0 4.8 0.00 0.00 0.00 67 1017.3
20260505234032 21 146 0.0 6.4 0.00 0.00 0.00 67 1017.3
20260505233528 21 163 1.6 6.4 0.00 0.00 0.00 66 1017.3
20260505233054 21 139 1.6 4.8 0.00 0.00 0.00 66 1017.3
20260505232534 21 143 0.0 4.8 0.00 0.00 0.00 66 1017.3
20260505232032 21 0 0.0 4.8 0.00 0.00 0.00 66 1017.3
20260505231545 21 146 0.0 4.8 0.00 0.00 0.00 65 1017.2
20260505231032 21 140 0.0 4.8 0.00 0.00 0.00 65 1017.2
20260505230532 21 138 1.6 8.0 0.00 0.00 0.00 64 1017.3
20260505230052 22 131 1.6 8.0 0.00 0.00 0.00 64 1017.3
20260505225532 22 143 1.6 6.4 0.00 0.00 0.00 63 1017.2
20260505225032 22 125 1.6 4.8 0.00 0.00 0.00 64 1017.1
20260505224552 22 139 0.0 4.8 0.00 0.00 0.00 63 1017.2
20260505224035 22 140 1.6 4.8 0.00 0.00 0.00 64 1017.2
20260505223533 22 0 0.0 4.8 0.00 0.00 0.00 64 1017.3
20260505223048 22 0 0.0 4.8 0.00 0.00 0.00 65 1017.3
20260505222532 22 0 1.6 4.8 0.00 0.00 0.00 65 1017.3
20260505222032 22 150 0.0 4.8 0.00 0.00 0.00 64 1017.3
20260505221543 22 152 0.0 8.0 0.00 0.00 0.00 64 1017.3
20260505221031 22 155 0.0 8.0 0.00 0.00 0.00 64 1017.3
20260505220531 22 156 1.6 8.0 0.00 0.00 0.00 63 1017.2
20260505220044 22 0 0.0 6.4 0.00 0.00 0.00 64 1017.1
20260505215531 22 124 1.6 8.0 0.00 0.00 0.00 64 1017.1
20260505215032 22 135 1.6 8.0 0.00 0.00 0.00 64 1017.2
20260505214538 22 126 1.6 6.4 0.00 0.00 0.00 63 1017.1
20260505214032 22 143 1.6 4.8 0.00 0.00 0.00 64 1017.0
20260505213531 22 132 1.6 4.8 0.00 0.00 0.00 64 1017.0
20260505213036 22 0 0.0 4.8 0.00 0.00 0.00 65 1017.0
20260505212532 22 138 1.6 8.0 0.00 0.00 0.00 64 1017.0
20260505212032 22 150 1.6 8.0 0.00 0.00 0.00 65 1017.0
20260505211547 22 147 1.6 8.0 0.00 0.00 0.00 64 1017.0
20260505211031 22 123 1.6 4.8 0.00 0.00 0.00 65 1017.1
20260505210532 22 141 1.6 6.4 0.00 0.00 0.00 63 1017.2
20260505210046 22 140 1.6 6.4 0.00 0.00 0.00 64 1017.3
20260505205532 22 142 1.6 6.4 0.00 0.00 0.00 65 1017.2
20260505205032 22 129 1.6 8.0 0.00 0.00 0.00 65 1017.1
20260505204542 22 141 3.2 8.0 0.00 0.00 0.00 65 1017.2
20260505204032 22 157 1.6 8.0 0.00 0.00 0.00 64 1017.2
20260505203531 23 151 1.6 8.0 0.00 0.00 0.00 64 1017.1
20260505203042 23 144 1.6 8.0 0.00 0.00 0.00 64 1017.1
20260505202531 23 151 1.6 8.0 0.00 0.00 0.00 63 1017.2
20260505202032 23 175 1.6 8.0 0.00 0.00 0.00 63 1017.3
20260505201552 23 132 1.6 8.0 0.00 0.00 0.00 62 1017.3
20260505201033 23 147 3.2 8.0 0.00 0.00 0.00 62 1017.4
20260505200532 23 155 3.2 8.0 0.00 0.00 0.00 63 1017.5
20260505200043 23 0 1.6 8.0 0.00 0.00 0.00 64 1017.6
20260505195532 23 163 0.0 6.4 0.00 0.00 0.00 63 1017.5
20260505195031 23 159 1.6 4.8 0.00 0.00 0.00 62 1017.7
20260505194542 23 146 1.6 4.8 0.00 0.00 0.00 63 1017.8
20260505194033 23 138 1.6 8.0 0.00 0.00 0.00 63 1017.9
20260505193532 23 124 1.6 8.0 0.00 0.00 0.00 63 1017.8
20260505193041 23 169 1.6 8.0 0.00 0.00 0.00 61 1018.0
20260505192534 23 152 1.6 4.8 0.00 0.00 0.00 61 1018.0
20260505192032 23 134 1.6 4.8 0.00 0.00 0.00 61 1018.1
20260505191610 24 140 1.6 4.8 0.00 0.00 0.00 61 1018.1
20260505191032 24 149 1.6 6.4 0.00 0.00 0.00 61 1018.1
20260505190529 24 0 1.6 8.0 0.00 0.00 0.00 60 1018.2
20260505190055 24 140 3.2 8.0 0.00 0.00 0.00 60 1018.2
20260505185533 24 146 1.6 8.0 0.00 0.00 0.00 58 1018.2
20260505185033 24 132 1.6 8.0 0.00 0.00 0.00 60 1018.1
20260505184545 24 162 1.6 8.0 0.00 0.00 0.00 60 1018.1
20260505184032 24 147 1.6 8.0 0.00 0.00 0.00 61 1018.2
20260505183533 24 141 1.6 8.0 0.00 0.00 0.00 60 1018.2
20260505183109 24 156 3.2 8.0 0.00 0.00 0.00 58 1018.2
20260505182533 24 128 1.6 8.0 0.00 0.00 0.00 59 1018.3
20260505182032 24 163 3.2 9.7 0.00 0.00 0.00 60 1018.4
20260505181543 24 144 3.2 9.7 0.00 0.00 0.00 59 1018.3
20260505181030 24 178 3.2 9.7 0.00 0.00 0.00 61 1018.4
20260505180531 24 145 1.6 8.0 0.00 0.00 0.00 60 1018.4
20260505180044 24 166 3.2 8.0 0.00 0.00 0.00 59 1018.3
20260505175531 25 166 3.2 8.0 0.00 0.00 0.00 58 1018.2
20260505175033 24 113 1.6 8.0 0.00 0.00 0.00 58 1018.3
20260505174547 24 150 1.6 8.0 0.00 0.00 0.00 58 1018.3
20260505174029 25 139 3.2 9.7 0.00 0.00 0.00 59 1018.3
20260505173531 25 141 3.2 9.7 0.00 0.00 0.00 59 1018.3
20260505173053 24 0 3.2 8.0 0.00 0.00 0.00 56 1018.4
20260505172532 24 146 1.6 6.4 0.00 0.00 0.00 59 1018.3
20260505172031 24 149 1.6 8.0 0.00 0.00 0.00 58 1018.3
20260505171551 23 167 3.2 8.0 0.00 0.00 0.00 59 1018.4
20260505171034 24 198 1.6 8.0 0.00 0.00 0.00 58 1018.3
20260505170532 24 127 3.2 8.0 0.00 0.00 0.00 57 1018.4
20260505170041 24 116 3.2 8.0 0.00 0.00 0.00 57 1018.4
20260505165531 24 183 1.6 8.0 0.00 0.00 0.00 58 1018.6
20260505165033 24 158 3.2 8.0 0.00 0.00 0.00 57 1018.5
20260505164546 25 0 1.6 8.0 0.00 0.00 0.00 56 1018.5
20260505164033 24 153 1.6 8.0 0.00 0.00 0.00 56 1018.6
20260505163532 24 0 0.0 4.8 0.00 0.00 0.00 58 1018.7
20260505163044 24 152 0.0 6.4 0.00 0.00 0.00 59 1018.7
20260505162532 23 0 1.6 6.4 0.00 0.00 0.00 57 1018.7
20260505162032 24 151 1.6 6.4 0.00 0.00 0.00 57 1018.6
20260505161551 23 133 0.0 6.4 0.00 0.00 0.00 56 1018.6
20260505161032 23 0 0.0 6.4 0.00 0.00 0.00 56 1018.7
20260505160533 23 176 1.6 6.4 0.00 0.00 0.00 59 1018.7
20260505153042 22 303 0.0 4.8 0.00 0.00 0.00 62 1018.8
20260505152533 22 309 0.0 3.2 0.00 0.00 0.00 64 1018.9
20260505152032 22 0 0.0 6.4 0.00 0.00 0.00 63 1018.8
20260505151550 22 0 0.0 6.4 0.00 0.00 0.00 62 1018.8
20260505151034 22 323 0.0 3.2 0.00 0.00 0.00 64 1018.8
20260505150534 22 0 0.0 3.2 0.00 0.00 0.00 64 1018.7